DECAYED
Showing default

FLOCK 4Q 3, 58312 (Decayed)

Orbit data source: Space-Track

FLOCK 4Q 3, 58312 was a payload satellite owned by Planet (US) in LEO that was launched on Sat, 11 Nov 2023 UTC via an FALCON 9 launch vehicle from the Air Force Western Test Range (AFWTR). Payload-class satellites include a variety of spacecraft equipped with specific instruments for various scientific and technological missions. These include communications satellites like Starlink; space stations such as the ISS; scientific satellites like the Hubble; Earth observation satellites from companies like Planet Labs, Umbra, and HawkEye 360; GPS; miniature CubeSats for education and research; and military/defense satellites.

Not visible in the next 10 days
Identifier
58312, 2023-174BJ
Orbit
Decayed
Country
Flag of USUS
Related business
Manufacturer
Planet
Mission
Decayed Commercial Imaging
Bus & Motor
CUBESAT 3U, Unknown motor
Mass
5.7 kg wet, 5.7 kg dry
Launch date (UTC)
2023-11-11 (3 years ago)
Launch vehicle
FALCON 9
Launch site
Air Force Western Test Range (AFWTR)
Object type
Payload
Rocket body
Debris
Shape & HBR
Box + 2 Pan, 1.0 m
Radar Cross Section
0.072 m², Medium (>0.1 m² and < 1m²)

Expand to show TLE details & history
Last TLE update: 1 year ago

TLE from 1 year ago
0 FLOCK 4Q 3
1 58312U 23174BJ  25077.17694506  .10154900  24897-5  17355-2 0  9993
2 58312  97.3728 164.9762 0013505 274.1148  85.8604 16.32819237 76054
Epoch: 2025-03-18T04:14Z
TLE epoch observation values (Epoch: 2025-03-18T04:14:48.053Z)
Latitude
-0.00001°
Longitude
-74.70719°
Altitude
187.589 km
Speed
7.794 km/s
True Right ascension
10h 59m 54s
True Declination
0° 00' 00"
Sunlit
Object was in full shadow at epoch
Visualization orbit readout
Latitude
Unknown
Longitude
Unknown
Altitude
Unknown
Speed
Unknown
Apparent Right ascension
Unknown
Apparent Declination
Unknown
Sunlit
N/A
Visualization observer readout
Local Sidereal Time
23:02:18
Azimuth
Unknown
Elevation
Unknown
Doppler factor
Unknown
Orbital elements
Apogee altitude
190.649 km
Perigee altitude
172.931 km
Semi-major axis
6,559.927 km
Eccentricity
0.00135
Inclination
97.3728°
RAAN
164.9762°
Arg. of periapsis
274.1148°
True anomaly
86.01477°
Mean anomaly
85.8604°
Eccentric anomaly
85.93758°
Mean motion
4.08502 °/min
Orbital period
88.13 mins
BSTAR
0.0017355
Loading maneuver chart data...
Computing Atmospheric mass density...
Loading historical data...
Loading historical data...
Loading historical data...
Loading historical data...
Loading historical data...
Loading historical data...
Loading historical data...

Documentation

Showing up to 5 results
|